Regional Weather Roundup
Issued by NWS

Home | Current Version | Previous Version | Graphics & Text | Print | Product List | Glossary On
Versions: 1 2 3 4 5 6 7 8 9 10 11 12 13 14 15 16 17 18 19 20 21 22 23 24 25 26 27 28
000
ASUS45 KSLC 231610
RWRUT

UTAH REGIONAL WEATHER ROUNDUP
NATIONAL WEATHER SERVICE SALT LAKE CITY UT
1000 AM MDT WED APR 23 2014

UTZ001>011-023>025-231700-

NORTHERN UTAH

CITY           SKY/WX    TMP DP  RH WIND       PRES   REMARKS
DUGWAY         MOSUNNY   46  25  43 N3        30.05R
HILL AFB       MOSUNNY   42  24  48 N10       30.01R
LOGAN          MOSUNNY   42  24  49 NW12      29.99S
OGDEN          MOSUNNY   44  24  45 NW17      30.00S
PROVO AIRPORT  MOSUNNY   43  19  39 NW14G21   30.03
SALT LAKE CITY MOSUNNY   45  25  45 NW15      30.02R
VERNAL         CLOUDY    44  21  40 S6        29.89R
WENDOVER       SUNNY     46  16  29 NW18      30.04R
HEBER CITY     SUNNY     41  18  38 N17       29.98R
WEST JORDAN    SUNNY     43  27  52 NW18      30.02R

$$

UTZ012>022-026-027-231700-

SOUTHERN UTAH

CITY           SKY/WX    TMP DP  RH WIND       PRES   REMARKS
BRYCE CANYON   PTSUNNY   38  21  50 NW12      29.96R WCI  30
CEDAR CITY     MOSUNNY   43  23  45 N12G20    29.99R
MILFORD        SUNNY     46  24  42 N20G25    30.01R
MOAB/CYNLANDS  SUNNY     53  18  25 W15G23    29.87R
PRICE          CLOUDY    43  12  28 N14G23    29.96R
ST GEORGE      SUNNY     61  25  25 SE10      29.94R

$$

REGIONAL REPORTS     COLORADO/ARIZONA

CITY           SKY/WX    TMP DP  RH WIND       PRES   REMARKS
CRAIG, CO      CLOUDY    40  30  67 N14       29.89R WCI  32
GRAND JUNCTION PTSUNNY   53  20  27 NW13      29.85R
RIFLE          MOSUNNY   52  15  23 N12G17    29.84S
MONTROSE       MOSUNNY   57  23  26 NW13G20   29.84R
CORTEZ         SUNNY     59  22  24 S10       29.86S
PAGE, AZ       CLOUDY    55  19  24 W6        29.89R
GRAND CANYON   CLOUDY    49   7  18 VRB7      29.95R
KINGMAN        MOSUNNY   62   8  12 N20       29.93R
FLAGSTAFF      PTSUNNY   50   7  17 SW16      29.95R

$$

REGIONAL REPORTS    NEVADA/IDAHO/WYOMING

CITY           SKY/WX    TMP DP  RH WIND       PRES   REMARKS
LAS VEGAS, NV  MOSUNNY   65  11  12 NW16G23   29.90R
ELY            SUNNY     38  18  44 CALM      30.04F
ELKO           SUNNY     38  26  62 SW7       30.05S WCI  33
POCATELLO, ID  MOSUNNY   40  29  64 SW20      29.98S WCI  30
BURLEY         SUNNY     41  27  57 W17       30.00S
EVANSTON, WY   PTSUNNY   31  19  61 W18G24    29.95R WCI  19
ROCK SPRINGS   PTSUNNY   37  20  50 SW25G33   29.90R WCI  25

$$



USA.gov is the U.S. government's official web portal to all federal, state and local government web resources and services.